Regional Weather Roundup
Issued by NWS

Home | Current Version | Previous Version | Text Only | Print | Product List | Glossary Off
Versions: 1 2 3 4 5 6 7 8 9 10 11 12 13 14 15 16 17 18 19 20 21 22 23 24 25 26 27 28 29 30 31 32 33 34 35 36 37 38 39 40 41 42 43 44 45 46 47 48 49 50

000
ASUS43 KMPX 241010
RWRMN
WEATHER ROUNDUP FOR MINNESOTA
NATIONAL WEATHER SERVICE TWIN CITIES/CHANHASSEN MN
500 AM CDT FRI OCT 24 2014


NOTE: "FAIR" INDICATES FEW OR NO CLOUDS BELOW 12,000 FEET WITH NO
SIGNIFICANT WEATHER AND/OR OBSTRUCTIONS TO VISIBILITY. N/A MEANS
CURRENT SKY AND/OR WEATHER CONDITIONS ARE NOT AVAILABLE.

MNZ060>063-068>070-241100-
   Twin Cities Metro

CITY           SKY/WX    TMP DP  RH WIND       PRES   REMARKS
TWIN CITIES    PTCLDY    47  44  90 E10       29.93F
ST PAUL        PTCLDY    46  46 100 SE6       29.95S FOG
CRYSTAL        PTCLDY    48  45  89 SE3       29.91F
BLAINE         PTCLDY    48  48 100 SE6       29.92S
LAKEVILLE      PTCLDY    43  43 100 E5        29.93S
EDEN PRAIRIE   PTCLDY    50  44  80 SE3       29.91F
SOUTH ST PAUL  PTCLDY    46  45  95 CALM      29.94F FOG
LAKE ELMO      FAIR      45  45 100 SE3       29.95F FOG
$$
MNZ001>005-007-008-013>017-022>024-027-028-241100-
   Northwest Minnesota

CITY           SKY/WX    TMP DP  RH WIND       PRES   REMARKS
BEMIDJI        CLOUDY    52  42  70 S7        29.80S
HALLOCK        CLOUDY    46  39  76 S7        29.71F
ROSEAU         CLOUDY    52  43  71 S8        29.72S
WARROAD        CLOUDY    52  43  71 SW8       29.72F
THIEF RVR FALL MOCLDY    48  39  71 SW9       29.76S
CROOKSTON      CLOUDY    46  41  81 S9        29.77S
FOSSTON        MOCLDY    50  43  76 S10       29.79S
DETROIT LAKES  CLOUDY    50  45  81 S6        29.83S
MOORHEAD       CLOUDY    46  45  93 S8        29.81S
PARK RAPIDS    CLOUDY    47  41  80 SE6       29.83F
MAHNOMEN       FAIR      50  43  77 S9        29.80S
$$
MNZ006-009>011-018-025>026-241100-
   North Central Minnesota

CITY           SKY/WX    TMP DP  RH WIND       PRES   REMARKS
BAUDETTE       CLOUDY    52  41  66 SE3       29.73F
FLAG ISLAND    MOCLDY    52  45  76 SE12      29.69F
INTL FALLS     CLOUDY    52  42  69 VRB3      29.77F
WASKISH        CLOUDY    55  45  67 CALM      29.76F
BIG FORK       CLOUDY    54  43  66 S7        29.81F
LONGVILLE      CLOUDY    45  39  81 CALM      29.83F
GRAND RAPIDS   CLOUDY    48  41  76 S8        29.84F
CRANE LAKE     CLOUDY    50  43  76 S5        29.82F
ORR            CLOUDY    48  39  71 CALM      29.79F
COOK           CLOUDY    52  43  71 S7        29.83F
WALKER         FAIR      51  41  69 SW7       29.83S
$$
MNZ012-019>021-037-241100-
   Northeast Minnesota

CITY           SKY/WX    TMP DP  RH WIND       PRES   REMARKS
DULUTH         CLOUDY    48  46  93 SW10      29.90S FOG
ELY            CLOUDY    48  45  87 SW6       29.86S
HIBBING        CLOUDY    38  36  92 CALM      29.86F
EVELETH        FOG       36  36 100 CALM      29.88S VSB 1/2
DULUTH HARBOR  CLOUDY    45  43  93 CALM      29.92S FOG
TWO HARBORS    CLOUDY    48  37  66 CALM      29.89S HAZE
SILVER BAY     CLOUDY    48  48 100 S5        29.89S FOG
GRAND MARAIS     N/A     48  47  96 SW3       29.91F
G MARAIS ARPRT FOG       45  43  93 S6        29.91S VSB 1/4
$$
MNZ029>031-032-039>041-046>048-054>057-064-241100-
   West Central Minnesota

CITY           SKY/WX    TMP DP  RH WIND       PRES   REMARKS
FERGUS FALLS   CLOUDY    48  39  71 SE7       29.84S
WHEATON        MOCLDY    39  37  93 SE7       29.84F
MORRIS         MOCLDY    45  43  93 SE8       29.83S
ALEXANDRIA     MOCLDY    47  43  86 S7        29.85F
ELBOW LAKE     FAIR      46  42  88 SE7       29.84S
WADENA         CLOUDY    46  41  81 S5        29.84S
GLENWOOD       MOCLDY    45  43  93 SE7       29.86F
APPLETON       MOCLDY    45  43  93 SE6       29.83F
BENSON         MOCLDY    48  45  87 SE6       29.85S
ORTONVILLE     MOCLDY    46  43  87 SE6       29.83S
MADISON        MOCLDY    46  45  93 E7        29.83F
WILLMAR        FAIR      46  41  81 E6        29.87F
$$
MNZ033>034-036-042>043-049>051-058-059-241100-
   Central Minnesota

CITY           SKY/WX    TMP DP  RH WIND       PRES   REMARKS
ST CLOUD       MOCLDY    50  40  68 SE7       29.88F
SAUK CENTRE    FAIR      47  42  82 SE6       29.86F
PAYNESVILLE    MOCLDY    47  41  80 SE5       29.88F
AITKIN         MOCLDY    52  45  76 S3        29.85F
PINE RIVER     CLOUDY    46  41  81 CALM      29.88F
BRAINERD       CLOUDY    49  41  74 S7        29.86F
STAPLES        CLOUDY    48  43  81 S6        29.84F
LONG PRAIRIE   FAIR      45  41  87 SE5       29.86F
LITTLE FALLS   CLOUDY    46  39  76 SE3       29.87F
LITCHFIELD     MOCLDY    52  45  76 CALM      29.89R
BUFFALO        MOCLDY    48  41  76 CALM      29.91S
MAPLE LAKE     MOCLDY    48  43  81 SE3       29.90S
$$
MNZ037-044-045-052-053-241100-
   East Central Minnesota

CITY           SKY/WX    TMP DP  RH WIND       PRES   REMARKS
PRINCETON      MOCLDY    46  45  93 E3        29.91S
MORA           FOG       39  37  93 CALM      29.93R VSB 1/4
CAMBRIDGE      MOCLDY    50  43  76 SE5       29.90S HAZE
RUSH CITY      CLOUDY    47  46  97 S5        29.92S FOG
MOOSE LAKE     CLOUDY    46  45  93 S3        29.89S FOG
HINCKLEY       FOG       46  46 100 CALM      29.92S VSB 1/2
CLOQUET        CLOUDY    46  46 100 S6        29.90S FOG
MCGREGOR       MOCLDY    48  45  87 S6        29.88F
$$
MNZ071>073-080-081-089-090-097-098-241100-
   Southwest Minnesota

CITY           SKY/WX    TMP DP  RH WIND       PRES   REMARKS
MONTEVIDEO     CLOUDY    46  43  87 SE5       29.85F
GRANITE FALLS  CLOUDY    47  44  87 CALM      29.86F
CANBY          PTCLDY    55  50  81 SW13      29.83F
MARSHALL       MOCLDY    54  45  71 SW6       29.83F
REDWOOD FALLS  CLOUDY    47  42  83 SE7       29.86S
OLIVIA         MOCLDY    46  43  87 SE7       29.86S
PIPESTONE      MOCLDY    50  46  87 S7        29.84F
WINDOM         CLOUDY    52  45  76 S5        29.88S
WORTHINGTON    MOCLDY    52  46  82 S10       29.88F
JACKSON        MOCLDY    52  45  76 S8        29.89F
TRACY          PTCLDY    51  46  80 S13       29.85F
SLAYTON        PTCLDY    52  48  86 S7        29.87F
$$
MNZ065>067-074>077-082>085-091>093-241100-
   South Central Minnesota

CITY           SKY/WX    TMP DP  RH WIND       PRES   REMARKS
MANKATO        MOCLDY    48  41  76 S12       29.91F
NEW ULM        MOCLDY    46  43  87 S9        29.88F
ST JAMES       MOCLDY    54  43  66 S9        29.90S
FAIRMONT       MOCLDY    48  39  71 S10       29.91F
GLENCOE        MOCLDY    51  44  77 S7        29.89S
FARIBAULT      PTCLDY    48  45  87 S6        29.93F
OWATONNA       PTCLDY    52  46  82 S12       29.93F
WASECA         PTCLDY    48  41  76 SE9       29.94F
ALBERT LEA     PTCLDY    46  45  93 SE7       29.95F FOG
$$
MNZ078>079-086>088-094>096-241100-
   Southeast Minnesota

CITY           SKY/WX    TMP DP  RH WIND       PRES   REMARKS
ROCHESTER      FOG       45  45 100 S9        29.98F VSB 1/4
RED WING       MOCLDY    48  46  93 SE7       29.95F FOG
STANTON        PTCLDY    48  44  85 S5        29.92F
DODGE CENTER   PTCLDY    45  45 100 S8        29.96F
WINONA         CLOUDY    52  50  93 SE5       30.00F
AUSTIN         FOG       45  45 100 SE3       29.97F VSB 1
PRESTON        FOG       47  46  98 S8        30.00F VSB 1/4
$$
ABBREVIATIONS USED IN REMARKS
   TC - TEMPERATURES IN CELSIUS
  WCI - WIND CHILL INDEX
   HX - HEAT INDEX
  VSB - VISIBILITY
$$



USA.gov is the U.S. government's official web portal to all federal, state and local government web resources and services.